KT1D-13 Weather Reports


Display with metric or nautical units.
time (UTC)temp
F
wind
direction
speed
MPH
gust
MPH
rain 1hr
in
rain 24hr
in
rain mn
in
humidity
%
barometer
mb
20260507070521 54 259 2.0 3.0 0.00 0.00 0.00 91 1006.0
20260507065521 54 283 2.0 3.0 0.00 0.00 0.00 92 1005.9
20260507064541 54 264 2.0 3.0 0.00 0.00 0.00 91 1005.8
20260507063521 54 265 2.0 4.0 0.00 0.00 0.00 91 1006.0
20260507062522 54 241 2.0 5.0 0.00 0.00 0.00 91 1006.0
20260507061521 55 276 2.0 3.0 0.00 0.00 0.00 91 1005.8
20260507060519 55 275 2.0 5.0 0.00 0.00 0.00 90 1006.0
20260507055522 55 240 2.0 4.0 0.00 0.00 0.00 90 1006.0
20260507054519 55 251 2.0 5.0 0.00 0.00 0.00 91 1006.0
20260507053543 56 260 2.0 4.0 0.00 0.00 0.00 92 1006.2
20260507052522 56 242 2.0 4.0 0.00 0.00 0.00 93 1006.0
20260507051522 56 239 2.0 4.0 0.00 0.00 0.00 93 1005.8
20260507050520 57 240 2.0 7.0 0.00 0.00 0.00 93 1005.9
20260507045520 57 244 2.0 7.0 0.00 0.00 0.00 94 1006.1
20260507044540 57 251 3.0 7.0 0.00 0.00 0.00 96 1006.2
20260507043520 58 251 3.0 7.0 0.00 0.00 0.00 96 1005.9
20260507042523 58 246 2.0 3.0 0.00 0.00 0.00 96 1006.0
20260507041521 58 252 3.0 5.0 0.00 0.00 0.00 97 1006.0
20260507040521 59 255 4.0 8.0 0.00 0.00 0.00 97 1006.1
20260507035520 59 252 3.0 6.0 0.00 0.00 0.00 97 1006.2
20260507034521 59 249 4.0 7.0 0.00 0.00 0.00 97 1005.8
20260507033521 59 250 4.0 7.0 0.00 0.00 0.00 96 1005.7
20260507032521 59 253 5.0 9.0 0.00 0.00 0.00 96 1005.8
20260507031521 59 250 4.0 8.0 0.00 0.00 0.00 95 1005.5
20260507030541 59 242 3.0 5.0 0.00 0.00 0.00 95 1005.3
20260507025521 59 242 4.0 8.0 0.00 0.00 0.00 95 1005.2
20260507024522 59 241 3.0 8.0 0.00 0.00 0.00 95 1005.3
20260507023516 59 240 4.0 7.0 0.00 0.00 0.00 95 1005.4
20260507022519 59 250 3.0 10.0 0.00 0.00 0.00 95 1005.4
20260507021521 59 230 3.0 7.0 0.00 0.00 0.00 95 1005.4
20260507020522 59 233 3.0 7.0 0.00 0.00 0.00 95 1005.4
20260507015522 59 202 3.0 8.0 0.00 0.00 0.00 95 1005.3
20260507014543 59 235 3.0 8.0 0.00 0.00 0.00 95 1005.5
20260507013522 59 208 4.0 10.0 0.00 0.00 0.00 95 1005.4
20260507012517 58 200 4.0 8.0 0.00 0.00 0.00 96 1005.5
20260507011517 58 194 4.0 9.0 0.00 0.00 0.00 95 1005.5
20260507010517 58 202 6.0 12.0 0.00 0.00 0.00 95 1005.6
20260507005517 58 221 4.0 8.0 0.00 0.00 0.00 95 1005.7
20260507004537 58 228 4.0 8.0 0.00 0.00 0.00 95 1005.7
20260507003523 58 220 4.0 8.0 0.00 0.00 0.00 95 1005.6
20260507002537 58 225 4.0 8.0 0.00 0.00 0.00 96 1005.7
20260507001518 59 211 3.0 5.0 0.00 0.00 0.00 95 1005.6
20260507000518 59 206 4.0 7.0 0.00 0.00 0.00 95 1005.3
20260506235538 59 187 5.0 11.0 0.00 0.00 0.00 95 1005.3
20260506234518 59 202 4.0 8.0 0.00 0.00 0.00 95 1005.4
20260506233518 59 188 4.0 7.0 0.00 0.00 0.00 95 1005.4
20260506232518 59 213 4.0 9.0 0.00 0.00 0.00 95 1005.3
20260506231518 59 221 4.0 10.0 0.00 0.00 0.00 94 1005.3
20260506230518 59 203 5.0 11.0 0.00 0.00 0.00 95 1005.4
20260506225518 59 208 3.0 7.0 0.00 0.00 0.00 95 1005.4
20260506224519 59 198 4.0 8.0 0.00 0.00 0.00 95 1005.5
20260506223519 59 198 4.0 8.0 0.00 0.00 0.00 95 1005.6
20260506222519 59 196 4.0 7.0 0.00 0.00 0.00 95 1005.7
20260506221539 60 207 3.0 9.0 0.00 0.00 0.00 95 1005.8
20260506220528 60 213 2.0 5.0 0.00 0.00 0.00 94 1005.9
20260506215516 60 203 4.0 10.0 0.00 0.00 0.00 93 1005.9
20260506214540 61 218 3.0 8.0 0.00 0.00 0.00 90 1006.1
20260506213517 61 198 6.0 12.0 0.00 0.00 0.00 89 1006.3
20260506212520 61 208 4.0 8.0 0.00 0.00 0.00 90 1006.2
20260506211540 61 183 6.0 13.0 0.00 0.00 0.00 89 1006.3
20260506210520 61 198 4.0 8.0 0.00 0.00 0.00 89 1006.2
20260506205557 61 199 5.0 12.0 0.00 0.00 0.00 88 1006.3
20260506204520 61 214 4.0 9.0 0.00 0.00 0.00 88 1006.5
20260506203520 61 208 5.0 10.0 0.00 0.00 0.00 88 1006.7
20260506202517 61 211 6.0 11.0 0.00 0.00 0.00 87 1006.5
20260506201520 62 188 4.0 9.0 0.00 0.00 0.00 89 1006.5
20260506200520 62 180 4.0 9.0 0.00 0.00 0.00 88 1006.4
20260506195538 62 222 3.0 12.0 0.00 0.00 0.00 89 1006.4
20260506194521 62 196 3.0 7.0 0.00 0.00 0.00 87 1006.5
20260506193537 63 222 5.0 10.0 0.00 0.00 0.00 84 1006.7
20260506192521 64 220 3.0 7.0 0.00 0.00 0.00 80 1006.8
20260506191521 66 233 4.0 10.0 0.00 0.00 0.00 76 1006.8
20260506190518 67 225 6.0 13.0 0.00 0.00 0.00 71 1006.7
20260506185522 68 217 3.0 8.0 0.00 0.00 0.00 69 1006.7
20260506184519 69 247 7.0 18.0 0.00 0.00 0.00 66 1006.8
20260506183542 69 242 5.0 10.0 0.00 0.00 0.00 64 1006.8
20260506182516 70 236 6.0 15.0 0.00 0.00 0.00 61 1006.9
20260506181519 70 237 7.0 13.0 0.00 0.00 0.00 60 1006.9
20260506180519 71 201 8.0 16.0 0.00 0.00 0.00 58 1007.0
20260506175600 71 212 7.0 17.0 0.00 0.00 0.00 58 1007.0
20260506174519 71 217 6.0 16.0 0.00 0.00 0.00 59 1007.2
20260506173517 71 192 6.0 14.0 0.00 0.00 0.00 59 1007.2
20260506172516 71 200 7.0 14.0 0.00 0.00 0.00 60 1007.2
20260506171517 71 205 6.0 13.0 0.00 0.00 0.00 60 1007.3
20260506170517 70 183 7.0 15.0 0.00 0.00 0.00 62 1007.3
20260506165520 70 169 5.0 15.0 0.00 0.00 0.00 62 1007.4
20260506164518 70 183 7.0 14.0 0.00 0.00 0.00 62 1007.5
20260506163517 70 196 7.0 13.0 0.00 0.00 0.00 62 1007.6
20260506162517 71 176 6.0 14.0 0.00 0.00 0.00 62 1007.8
20260506161518 71 195 4.0 7.0 0.00 0.00 0.00 61 1008.0
20260506160518 71 210 5.0 15.0 0.00 0.00 0.00 60 1008.2
20260506155516 71 239 4.0 16.0 0.00 0.00 0.00 60 1008.3
20260506154516 71 218 7.0 13.0 0.00 0.00 0.00 59 1008.5
20260506153519 71 224 7.0 15.0 0.00 0.00 0.00 60 1008.6
20260506152519 70 203 8.0 16.0 0.00 0.00 0.00 61 1008.7
20260506151539 70 185 7.0 13.0 0.00 0.00 0.00 62 1008.7
20260506150517 69 194 6.0 12.0 0.00 0.00 0.00 64 1008.8
20260506145517 69 234 5.0 13.0 0.00 0.00 0.00 65 1009.0
20260506144517 68 229 4.0 9.0 0.00 0.00 0.00 67 1008.8
20260506143516 68 180 7.0 13.0 0.00 0.00 0.00 68 1008.9
20260506142516 68 208 4.0 11.0 0.00 0.00 0.00 69 1008.9
20260506141520 67 194 5.0 10.0 0.00 0.00 0.00 69 1008.8
20260506140558 67 180 5.0 10.0 0.00 0.00 0.00 71 1008.9
20260506135518 66 172 6.0 11.0 0.00 0.00 0.00 71 1008.9
20260506134518 65 188 6.0 13.0 0.00 0.00 0.00 73 1008.9
20260506133517 64 202 4.0 11.0 0.00 0.00 0.00 75 1009.4
20260506132519 64 176 3.0 10.0 0.00 0.00 0.00 75 1009.5
20260506131517 64 189 4.0 10.0 0.00 0.00 0.00 76 1009.5
20260506130537 63 195 6.0 10.0 0.00 0.00 0.00 77 1009.5
20260506125538 63 190 6.0 14.0 0.00 0.00 0.00 77 1009.4
20260506124517 63 196 5.0 12.0 0.00 0.00 0.00 78 1009.4
20260506123518 62 202 6.0 12.0 0.00 0.00 0.00 78 1009.6
20260506122518 62 199 5.0 11.0 0.00 0.00 0.00 79 1009.7
20260506121519 62 176 5.0 9.0 0.00 0.00 0.00 79 1009.4
20260506120518 61 188 6.0 12.0 0.00 0.00 0.00 80 1009.5
20260506115519 61 183 7.0 12.0 0.00 0.00 0.00 80 1009.8
20260506114540 61 210 3.0 8.0 0.00 0.00 0.00 80 1009.7
20260506113520 61 198 4.0 8.0 0.00 0.00 0.00 80 1010.0
20260506112516 61 197 5.0 12.0 0.00 0.00 0.00 80 1010.0
20260506111521 61 183 6.0 10.0 0.00 0.00 0.00 80 1009.7
20260506110539 61 186 4.0 11.0 0.00 0.00 0.00 80 1009.8
20260506105520 61 195 4.0 10.0 0.00 0.00 0.00 81 1009.8
20260506104521 60 190 4.0 8.0 0.00 0.00 0.00 81 1009.8
20260506103521 61 204 4.0 10.0 0.00 0.00 0.00 81 1009.8
20260506102517 61 198 4.0 8.0 0.00 0.00 0.00 80 1009.8
20260506101517 61 206 4.0 10.0 0.00 0.00 0.00 80 1009.8
20260506100517 61 199 5.0 8.0 0.00 0.00 0.00 79 1009.7
20260506095518 61 208 3.0 8.0 0.00 0.00 0.00 79 1009.6
20260506094538 61 192 5.0 8.0 0.00 0.00 0.00 79 1009.5
20260506093518 61 211 3.0 7.0 0.00 0.00 0.00 79 1009.6
20260506092538 61 213 4.0 8.0 0.00 0.00 0.00 79 1009.7
20260506091538 61 186 4.0 9.0 0.00 0.00 0.00 78 1009.6
20260506090518 61 213 4.0 9.0 0.00 0.00 0.00 78 1009.6
20260506085518 61 202 3.0 9.0 0.00 0.00 0.00 78 1009.8
20260506084518 61 200 5.0 9.0 0.00 0.00 0.00 77 1009.7
20260506083518 61 209 3.0 10.0 0.00 0.00 0.00 77 1009.7
20260506082558 62 202 4.0 9.0 0.00 0.00 0.00 77 1009.7
20260506081519 62 211 4.0 12.0 0.00 0.00 0.00 76 1009.6
20260506080519 62 221 4.0 10.0 0.00 0.00 0.00 76 1009.6
20260506073519 62 219 4.0 10.0 0.00 0.00 0.00 74 1009.5
20260506072539 63 207 5.0 8.0 0.00 0.00 0.00 74 1009.4
20260506071539 63 205 5.0 10.0 0.00 0.00 0.00 73 1009.4